Погода в Дашкесане

Азербайджан     40°30′44″N   46°04′35″E
темп.,
°C
ветер,
м/с
пор.,
м/с
влажн.,
%
обл.,
%
осадки,
мм/ч
давл.,
гПа
погр.,
м
11 апреля, вс
вс1101:00+7юв118678 0.1 101512
04:00+6юв2281100 0.2 101514
07:00+6юв2272100 0.0 101518
10:00+11всв2360100 0.1 1014737
13:00+12св5469100 0.4 1013889
16:00+11св4369100 0.8 1013676
19:00+8св1182100 0.6 1014142
22:00+7вюв22820 0.9 101419
12 апреля, пн
пн1201:00+6ю22820 0.0 101515
04:00+5ююз11795 0.0 101511
07:00+5ю0177100 0.0 101610
10:00+9св327321 0.0 1015644
13:00+12св536416 0.5 1014736
16:00+12св566491 3.2 1013626
19:00+10всв35740 3.8 1013110
22:00+7ю33690 4.1 101527
13 апреля, вт
вт1301:00+6ю32750 0.0 101526
04:00+4юз01837 0.0 101713
07:00+4св009356 0.0 1019111
10:00+6св339171 0.1 1018334
13:00+7св448969 0.1 1017449
16:00+8св568490 0.6 1015616
19:00+7св468676 0.8 1014543
22:00+5св229793 1.1 1016176
14 апреля, ср
ср1401:00+5св229895 0.2 1015150
04:00+4с119681 0.4 101577
07:00+4ссз2298100 1.8 1016309
10:00+2зюз1296100 9.3 1019122
13:00+4св2188100 0.4 1016402
16:00+5ссз1284100 1.4 1015492
19:00+4з129677 3.4 1016221
22:00+3ююз328264 3.4 101623
15 апреля, чт
чт1501:00+2ююз227681 0.0 101612
04:00+2ююз117637 0.0 101711
07:00+2юз227318 0.0 101818
10:00+8ссз24520 0.0 1016935
13:00+12ссз47382 0.0 10152075
16:00+12ссв44505 0.0 10151197
19:00+9всв22741 0.1 101619
22:00+6ююз22775 0.1 101814